Wind_Speed
19 20 21 21 20 19 18 17 15 14 11 9 7 7 10 11 12 12 13 5 10 11 12 9 11 15 12 11 11 11 11 11 13 14 14 14 11 16 15 16 16 18 19
20 18 19 19 19 19 19 18 17 17 16 15 13 13 14 15 14 13 13 13 12 12 12 12 14 14 15 17 14 12 12 13 13 13 16 18 18 15 17 14 16 16 16
23 20 18 18 19 20 20 19 18 17 18 17 17 17 15 16 16 15 15 15 15 14 13 14 14 15 15 15 14 15 15 14 14 15 14 15 16 15 15 15 15 17 16
13 11 19 17 18 19 19 18 19 19 19 19 20 20 19 18 18 17 18 18 18 17 17 16 16 15 16 16 16 15 15 13 14 15 17 16 15 14 13 14 15 17 17
17 15 15 9 16 17 17 17 20 21 21 21 21 22 23 22 22 22 21 20 21 20 20 19 20 18 18 18 17 18 16 14 17 16 17 16 14 11 13 15 18 18 18
15 17 16 16 9 10 15 16 18 20 23 23 24 24 24 25 26 26 22 21 21 21 22 20 21 19 23 24 25 24 19 14 16 17 18 17 15 16 15 16 17 18 16
18 18 16 15 13 10 12 14 16 19 20 24 26 26 26 27 27 27 29 27 24 24 24 22 25 24 26 24 24 27 28 27 27 24 21 21 21 18 18 18 18 16 19
18 17 19 15 14 14 11 13 17 19 20 22 24 26 26 27 29 30 31 31 30 30 27 23 26 27 24 21 24 24 24 25 28 30 33 35 30 26 24 21 21 20 22
14 14 15 16 15 16 15 15 16 18 21 22 22 24 26 27 30 30 32 29 31 32 31 32 31 27 28 30 28 24 25 26 25 28 29 29 28 26 24 22 22 21 21
14 14 13 11 11 14 16 17 18 18 19 22 23 25 24 26 27 30 30 29 29 30 31 34 37 38 35 31 32 30 30 31 25 26 22 27 32 35 33 33 28 25 24
15 15 14 13 14 14 16 17 17 18 19 20 21 24 24 25 26 29 29 29 31 30 30 30 31 34 37 43 41 35 35 31 27 29 30 29 29 27 26 26 28 28 26
16 16 16 16 14 13 13 16 16 14 15 19 19 21 22 25 28 27 28 31 32 31 31 31 29 32 33 36 39 42 45 44 34 32 31 29 27 26 27 27 29 33 29
18 18 18 18 17 15 16 13 13 11 11 14 16 19 18 19 22 25 27 31 35 35 35 33 33 32 28 23 27 36 39 40 33 31 32 32 30 29 30 29 27 20 24
21 21 20 20 20 20 15 16 15 15 13 13 15 17 21 21 18 16 12 9 15 27 34 34 39 40 32 32 26 24 26 26 29 30 30 31 30 29 28 27 27 26 24
22 23 23 22 22 21 19 18 16 16 15 16 18 18 20 23 23 25 31 30 26 25 24 28 27 27 29 30 30 30 26 25 26 30 29 28 27 27 27 26 25 24 22
22 22 22 23 22 23 24 24 21 19 17 19 21 22 21 24 29 33 30 28 24 24 26 20 22 23 25 28 27 28 30 31 28 25 27 29 28 26 25 25 25 24 23
20 20 21 24 25 23 23 24 24 24 22 20 18 18 21 21 21 23 26 29 29 26 28 24 26 27 26 26 30 27 26 26 25 26 28 26 26 25 25 25 25 23 23
19 21 21 22 25 27 27 27 25 24 24 23 19 19 21 25 20 20 22 29 31 24 28 27 29 29 26 23 33 29 27 21 23 28 28 27 25 25 23 23 23 23 24
21 21 21 22 22 27 30 29 27 28 28 27 25 21 18 18 19 20 21 25 25 22 22 25 29 30 30 33 31 30 28 29 28 28 28 27 26 27 23 21 22 25 25
23 23 24 25 26 26 27 28 28 27 27 27 25 23 19 18 18 18 18 19 24 25 26 21 28 29 27 26 25 29 27 29 29 28 27 24 24 24 24 24 27 26 22
23 25 25 26 21 20 23 26 28 28 26 27 27 24 21 17 21 21 21 21 26 30 29 24 20 19 27 24 22 23 25 28 27 26 24 22 22 22 24 26 26 24 24
21 23 23 23 23 22 24 25 25 26 26 30 28 24 22 21 22 20 17 20 25 26 26 26 24 22 17 17 25 30 20 18 18 20 22 19 20 21 23 25 24 22 24
22 22 23 22 21 22 24 25 25 25 27 29 28 23 21 22 20 19 17 20 21 20 21 21 18 16 17 15 15 17 19 20 22 21 18 16 18 18 19 17 14 17 17
18 19 21 22 22 22 23 24 25 26 27 27 26 24 22 18 19 18 20 21 18 17 15 15 13 11 13 15 15 15 17 19 22 20 18 18 18 18 15 14 14 11 10
16 17 18 19 20 21 22 22 22 23 23 22 21 20 19 17 15 19 20 18 14 12 10 9 6 6 8 9 10 12 13 12 13 15 14 11 11 12 12 9 8 5 4
13 15 17 19 19 19 20 20 20 20 20 19 19 19 18 16 15 16 16 13 10 7 5 3 1 4 4 5 4 2 1 2 4 8 8 9 9 8 9 6 5 12 10
Wind_Direction
209 211 212 212 213 214 217 220 223 229 240 260 246 221 222 218 213 222 254 213 204 224 248 252 220 252 263 264 248 246 259 267 270 276 293 305 318 297 293 298 303 300 303
210 209 216 218 216 215 219 222 221 223 222 228 231 226 229 234 227 223 229 236 227 226 232 239 244 239 235 259 272 278 280 293 291 300 288 289 284 285 282 287 298 301 303
203 211 212 218 218 222 220 221 221 222 222 222 222 223 229 234 235 235 231 235 236 230 237 232 239 244 247 251 249 252 248 235 248 251 282 290 289 292 287 289 292 289 296
353 283 205 218 227 225 226 226 223 221 224 225 223 225 223 227 235 236 234 237 242 243 237 241 246 242 243 242 247 252 259 272 271 270 265 266 273 284 277 278 306 308 308
1 345 354 240 226 236 238 230 234 232 226 227 229 228 228 230 233 224 234 238 236 243 251 238 239 243 243 243 244 237 247 244 254 264 269 280 284 318 320 312 298 300 315
10 12 5 358 329 254 235 235 237 239 238 229 229 230 229 231 234 236 229 231 237 235 241 248 253 250 239 242 242 246 249 258 262 269 278 283 300 298 291 295 309 309 304
20 8 3 360 358 336 299 266 244 239 240 241 235 234 232 232 237 238 235 233 238 232 238 238 246 245 236 234 244 249 249 249 248 250 263 266 277 280 284 287 285 292 292
24 16 9 359 348 334 324 307 266 254 249 242 243 240 240 240 239 239 238 237 237 242 247 244 240 249 259 244 235 246 246 249 252 250 252 260 263 267 267 272 274 274 279
18 15 5 5 352 337 330 323 317 283 259 248 249 247 242 244 245 245 240 238 240 241 241 244 248 248 244 249 257 256 250 251 256 254 255 259 265 262 262 269 274 279 279
359 356 353 347 345 348 336 319 311 314 293 266 255 246 246 248 248 246 245 242 244 242 242 243 244 244 248 249 243 246 252 252 257 263 266 261 261 263 263 259 259 259 267
339 336 335 334 332 326 336 336 316 309 304 304 268 257 258 253 250 246 245 242 244 247 244 246 242 246 247 245 244 245 247 254 257 260 259 260 261 260 254 254 254 239 250
323 322 322 322 320 320 318 317 322 307 301 293 295 283 269 262 255 256 250 245 242 248 255 256 253 250 250 248 246 246 248 248 252 258 263 263 262 258 261 256 250 245 236
312 310 309 310 310 306 309 305 302 288 300 297 288 285 282 276 273 262 264 256 252 245 248 255 260 267 269 261 253 250 249 246 246 250 252 256 256 259 262 267 267 259 251
300 299 299 298 299 299 296 301 297 300 303 302 305 308 323 326 293 281 304 317 341 268 260 266 263 260 257 256 258 254 243 238 241 247 248 249 253 255 253 251 249 251 254
292 292 291 289 289 291 289 285 287 288 284 295 297 299 302 299 295 290 307 309 304 307 305 300 271 254 250 249 249 248 241 234 240 248 250 251 249 249 252 253 253 255 251
298 288 286 292 289 287 291 289 280 282 284 287 293 287 286 283 288 295 301 305 297 293 298 285 272 268 257 252 243 239 237 236 237 239 238 243 252 254 256 254 252 250 252
307 298 292 288 282 284 287 289 289 286 282 291 291 292 300 294 295 296 299 298 288 288 281 281 265 253 256 266 260 251 246 238 228 230 242 243 239 242 247 252 258 254 247
305 299 293 286 285 283 280 279 279 283 285 284 284 281 290 299 303 301 297 296 293 275 268 261 260 246 238 261 268 268 261 256 243 246 250 251 253 254 250 244 251 250 248
309 299 291 286 281 280 286 287 282 281 281 283 286 284 289 290 301 296 300 293 277 267 264 257 258 246 235 237 240 252 255 245 238 237 242 243 245 254 262 255 252 253 258
301 296 293 289 281 280 280 279 279 277 277 278 279 280 286 288 288 293 292 297 291 282 282 275 270 248 248 248 249 249 248 251 247 244 243 242 243 244 251 256 260 264 263
303 298 294 292 292 294 281 276 277 279 278 277 277 281 286 276 282 286 289 285 287 292 285 280 277 272 253 249 250 260 254 249 247 247 242 236 238 240 244 249 255 261 266
310 304 296 289 287 285 282 287 284 278 276 276 274 273 284 287 278 279 277 280 283 287 287 284 276 270 266 251 246 254 261 272 266 251 246 241 244 246 251 251 250 250 252
313 307 300 296 295 294 294 287 282 280 277 275 280 286 280 282 283 280 280 280 282 284 284 280 271 268 262 255 248 248 245 256 264 265 261 256 252 251 253 259 258 256 255
320 312 308 302 299 294 288 285 282 281 284 286 280 277 282 278 276 277 277 278 279 279 278 277 272 276 269 257 251 256 256 256 260 261 261 258 257 252 249 253 257 251 263
330 322 315 308 304 300 295 289 285 281 280 279 281 281 279 275 267 270 271 271 269 268 268 277 277 276 283 282 273 265 262 253 251 249 240 232 226 221 221 212 212 165 39
341 343 334 328 320 314 306 299 295 289 282 280 279 278 275 270 262 263 259 253 238 230 220 200 151 110 67 48 15 357 261 224 224 198 197 207 199 188 176 154 76 70 83
Height
828 832 836 839 843 847 850 852 854 856 857 858 859 862 865 867 869 871 869 869 872 874 873 873 874 875 873 871 871 871 872 871 870 868 866 866 865 864 861 860 858 854 848
821 827 831 836 839 842 845 848 851 853 855 856 859 861 863 864 865 867 869 868 869 871 872 872 872 872 873 872 871 870 869 869 869 867 867 866 863 860 857 856 855 852 849
814 820 826 831 834 837 840 843 846 849 851 852 855 858 861 862 863 864 866 866 866 867 868 868 869 869 870 869 869 868 866 866 865 864 863 862 859 857 855 853 850 847 845
812 816 819 827 830 833 836 839 842 844 847 848 850 853 855 858 859 861 861 863 863 863 864 864 865 866 867 867 867 866 865 864 862 861 859 856 854 852 851 849 846 845 843
819 816 818 824 827 830 833 836 838 840 841 843 845 847 849 851 852 853 856 857 858 860 859 859 859 860 862 863 863 862 862 862 860 856 853 851 849 848 848 848 847 843 841
825 821 822 821 823 827 829 832 834 834 836 838 839 841 843 844 844 847 849 851 852 854 855 855 855 855 856 858 859 858 859 858 858 857 853 851 850 850 848 847 845 844 840
828 827 825 825 825 825 826 827 829 830 832 832 833 835 835 837 839 840 843 845 845 847 848 849 850 848 849 851 852 853 853 853 853 854 852 851 849 849 848 846 844 843 839
833 832 830 828 828 827 825 825 825 826 827 828 828 829 830 831 833 834 837 838 839 840 841 842 843 843 844 845 846 846 846 846 846 847 846 845 844 844 844 843 841 839 835
835 834 832 830 830 827 825 824 823 823 822 821 822 823 823 824 826 828 830 832 832 832 833 834 836 836 837 840 841 841 840 840 839 838 837 837 836 837 839 839 836 835 828
836 835 834 833 831 828 826 824 822 821 819 818 816 816 817 817 819 821 824 826 825 825 825 825 826 828 830 832 833 834 833 833 835 834 833 831 831 831 831 831 831 830 827
837 836 834 832 830 827 825 823 821 818 816 813 811 810 810 811 812 814 816 818 818 817 816 815 815 815 817 821 824 826 824 827 828 827 826 825 825 823 821 820 820 820 820
837 834 833 831 830 827 824 821 818 817 815 812 808 806 805 803 804 807 807 808 810 811 809 806 806 807 807 808 811 812 815 818 821 820 817 815 814 813 812 811 808 808 809
834 833 830 828 826 824 822 819 816 813 811 807 805 803 800 798 798 799 800 801 802 803 802 802 802 801 801 801 802 803 806 809 810 810 807 805 806 806 805 804 803 802 802
831 829 827 824 822 820 817 814 810 807 804 805 805 801 798 795 793 796 798 797 796 796 797 797 795 794 794 794 794 795 797 799 801 799 798 797 797 797 796 795 795 795 794
827 824 822 819 817 815 813 810 808 806 805 804 803 801 799 795 794 793 794 793 792 791 791 790 787 785 784 785 786 787 788 789 791 791 791 790 788 788 787 787 786 786 785
825 821 817 815 813 811 808 805 801 798 798 798 797 797 794 792 790 788 785 786 786 786 783 783 780 777 775 774 774 774 775 776 778 780 781 782 781 780 779 779 779 778 777
825 822 819 815 810 807 804 802 797 794 790 789 788 788 788 785 784 783 782 780 777 777 774 773 772 769 767 768 767 763 762 763 765 768 771 771 771 771 772 772 771 770 769
824 821 818 815 811 807 803 798 794 791 786 783 783 782 780 780 776 775 776 774 770 767 765 764 760 760 758 759 763 759 756 757 759 762 762 762 762 763 763 762 764 763 762
820 818 815 812 808 806 802 798 794 789 783 778 776 773 771 771 768 768 769 767 765 761 756 752 750 749 750 749 748 748 749 751 753 754 753 755 756 758 757 755 755 756 756
816 814 812 808 804 801 798 794 789 784 779 774 770 767 766 765 764 765 763 760 758 754 750 742 741 739 739 738 737 738 740 744 745 746 746 746 748 750 750 751 751 751 750
814 810 807 804 799 797 794 791 786 781 776 772 767 764 762 762 760 758 757 755 753 749 745 740 735 731 732 732 733 733 736 737 738 737 738 738 740 740 741 743 744 745 746
811 807 804 799 795 792 790 787 783 779 772 768 761 757 757 757 755 752 750 749 746 743 739 735 731 728 726 725 726 727 728 729 730 730 729 730 731 732 735 735 735 736 737
808 803 799 795 790 786 784 782 777 774 769 764 759 755 754 752 751 749 745 743 741 738 736 734 728 723 722 722 722 722 720 720 724 728 726 723 723 723 728 729 728 728 729
807 803 798 792 786 782 779 775 771 768 765 762 758 753 752 749 748 746 742 738 735 732 731 730 723 718 718 718 715 715 715 713 719 722 721 719 719 719 721 723 725 722 722
805 800 795 789 783 778 774 769 765 762 759 756 752 750 747 745 743 742 739 735 730 728 726 724 718 716 716 714 711 710 712 713 713 715 718 718 718 717 719 717 720 715 713
802 797 792 785 779 773 770 765 761 757 753 750 746 745 742 741 738 738 736 733 729 726 724 721 718 714 714 712 714 711 708 709 712 712 711 715 716 716 715 713 707 701 715